TimeAST,TemperatureF,Dew PointF,Humidity,Sea Level PressureIn,VisibilityMPH,Wind Direction,Wind SpeedMPH,Gust SpeedMPH,PrecipitationIn,Events,Conditions,WindDirDegrees,DateUTC
12:00 AM,78.8,66.2,65,30.04,6.2,ENE,10.4,-,N/A,,Partly Cloudy,70,2013-01-01 04:00:00
1:00 AM,78.8,66.2,65,30.04,6.2,East,11.5,-,N/A,,Scattered Clouds,80,2013-01-01 05:00:00
2:00 AM,78,66,59,30.02,22,East,13.8,,,,Partly Cloudy,80,2013-01-01 06:00:00
2:00 AM,77.0,66.2,69,30.01,6.2,East,13.8,-,N/A,,Scattered Clouds,80,2013-01-01 06:00:00
3:00 AM,77.0,64.4,65,30.01,6.2,East,13.8,-,N/A,,Partly Cloudy,90,2013-01-01 07:00:00
4:00 AM,77.0,64.4,65,30.01,6.2,East,11.5,-,N/A,,Partly Cloudy,80,2013-01-01 08:00:00
5:00 AM,77,64,55,30.02,22,ESE,11.5,,,,Scattered Clouds,110,2013-01-01 09:00:00
5:00 AM,77.0,64.4,65,30.01,6.2,East,12.7,-,N/A,,Partly Cloudy,90,2013-01-01 09:00:00
6:00 AM,77.0,64.4,65,30.01,6.2,East,10.4,-,N/A,,Partly Cloudy,90,2013-01-01 10:00:00
7:00 AM,77.0,62.6,61,30.04,6.2,East,12.7,-,N/A,,Partly Cloudy,90,2013-01-01 11:00:00
8:00 AM,79,63,49,30.06,44,ESE,11.5,,,,Scattered Clouds,120,2013-01-01 12:00:00
8:00 AM,78.8,62.6,57,30.04,6.2,East,10.4,-,N/A,,Partly Cloudy,100,2013-01-01 12:00:00
9:00 AM,80.6,66.2,61,30.06,6.2,East,11.5,-,N/A,,Partly Cloudy,90,2013-01-01 13:00:00
10:00 AM,80.6,64.4,58,30.06,6.2,East,12.7,-,N/A,,Partly Cloudy,90,2013-01-01 14:00:00
11:00 AM,82,67,50,30.09,37,ESE,13.8,,,,Scattered Clouds,120,2013-01-01 15:00:00
11:00 AM,82.4,66.2,58,30.06,6.2,East,13.8,-,N/A,,Partly Cloudy,100,2013-01-01 15:00:00
12:00 PM,82.4,68.0,62,30.06,6.2,East,12.7,-,N/A,,Mostly Cloudy,100,2013-01-01 16:00:00
1:00 PM,82.4,68.0,62,30.04,6.2,East,10.4,24.2,N/A,,Scattered Clouds,100,2013-01-01 17:00:00
2:00 PM,82,68,53,30.01,34,East,15.0,,,,Partly Cloudy,100,2013-01-01 18:00:00
2:00 PM,75.2,68.0,78,30.01,6.2,ESE,13.8,-,N/A,,Scattered Clouds,110,2013-01-01 18:00:00
3:00 PM,82.4,66.2,58,30.01,6.2,East,13.8,-,N/A,,Scattered Clouds,90,2013-01-01 19:00:00
4:00 PM,80.6,66.2,61,29.98,6.2,ESE,9.2,-,N/A,,Partly Cloudy,120,2013-01-01 20:00:00
5:00 PM,81,67,54,30.02,34,East,12.7,,,,Partly Cloudy,80,2013-01-01 21:00:00
5:00 PM,80.6,68.0,65,30.01,6.2,East,12.7,-,N/A,,Scattered Clouds,80,2013-01-01 21:00:00
6:00 PM,78.8,68.0,69,30.01,6.2,East,11.5,-,N/A,,Scattered Clouds,90,2013-01-01 22:00:00
7:00 PM,78.8,68.0,69,30.01,6.2,ENE,12.7,-,N/A,,Scattered Clouds,70,2013-01-01 23:00:00
8:00 PM,79,69,63,30.04,22,East,12.7,,,,Mostly Cloudy,80,2013-01-02 00:00:00
8:00 PM,78.8,68.0,69,30.04,6.2,ENE,12.7,-,N/A,,Scattered Clouds,70,2013-01-02 00:00:00
9:00 PM,78.8,68.0,69,30.04,6.2,East,13.8,-,N/A,,Scattered Clouds,80,2013-01-02 01:00:00
10:00 PM,78.8,66.2,65,30.04,6.2,East,16.1,-,N/A,,Scattered Clouds,80,2013-01-02 02:00:00
11:00 PM,78.8,66.2,65,30.04,6.2,East,17.3,-,N/A,,Partly Cloudy,100,2013-01-02 03:00:00